Location: Karaa?a�
(36.7158°N, 30.4165°E)
Time: 01:09:47
(UTC+00:00)

YAOGAN 1 - Pass Details

Date: 09 April 2020
Orbit: 618 x 620 km, 97.9° (Epoch: 24 May)

Event Time Altitude Azimuth Distance (km) Brightness Sun altitude
Rises 16:52:18 0° 176° (S) 2,880 5.8 -5.6°
Reaches altitude 10° 16:54:31 10° 180° (S) 1,979 5.0 -6.0°
Maximum altitude 16:58:45 58° 260° (W) 726 3.3 -6.9°
Drops below altitude 10° 17:03:02 10° 339° (NNW) 1,994 5.7 -7.7°
Sets 17:05:16 0° 344° (NNW) 2,904 6.5 -8.1°
